Change the Weather History Date:

Sunday, November 4, 2012

  Actual Average Record
Temperature  
Mean Temperature 33 °F 44 °F  
Max Temperature 35 °F 52 °F 75 °F (2003)
Min Temperature 31 °F 35 °F 13 °F (1991)
Degree Days  
Heating Degree Days 32 22  
Month to date heating degree days 120 85  
Since 1 July heating degree days 772 828  
Cooling Degree Days 0 0  
Month to date cooling degree days 0 0  
Year to date cooling degree days 548 362  
Moisture  
Dew Point 25 °F    
Average Humidity 69    
Maximum Humidity 75    
Minimum Humidity 63    
Precipitation  
Precipitation 0.00 in 0.12 in 0.88 in (1982)
Month to date precipitation 0.10 0.48  
Sea Level Pressure  
Sea Level Pressure 30.08 in    
Wind  
Wind Speed 7 mph (NW)    
Max Wind Speed 14 mph    
Max Gust Speed 17 mph    
Visibility 10 miles    
Events      
T = Trace of Precipitation, MM = Missing Value Source: NWS Daily Summary

Daily Weather History Graph

Daily Weather History Graph

Search for Another Location

Airport or City:

Trip Planner

Search our weather history database for the weather conditions in past years. The results will help you decide how hot, cold, wet, or windy it might be!

Date:

Astronomy

Nov. 04, 2012 Rise Set
Actual Time 6:50 AM EST 5:06 PM EST
Civil Twilight 6:22 AM EST 5:35 PM EST
Nautical Twilight 5:49 AM EST 6:08 PM EST
Astronomical Twilight 5:17 AM EST 6:40 PM EST
Moon 9:42 PM EST 11:34 AM EST
Length of Visible Light 11h 13m
Length of Day
10h 16m
Waning Gibbous, 72% of the Moon is Illuminated
Nov 4
Waning Gibbous
Nov 6
Last Quarter
Nov 13
New
Nov 20
First Quarter
Nov 28
Full

Hourly Weather History & Observations

Time (EST) Temp. Windchill Dew Point Humidity Pressure Visibility Wind Dir Wind Speed Gust Speed Precip Events Conditions
12:56 AM 34.0 °F 28.8 °F 27.0 °F 75% 30.08 in 10.0 mi NW 5.8 mph - N/A   Overcast
1:56 AM 34.0 °F 29.8 °F 27.0 °F 75% 30.07 in 10.0 mi WNW 4.6 mph - N/A   Overcast
1:56 AM 34.0 °F 29.8 °F 27.0 °F 75% 30.08 in 10.0 mi West 4.6 mph - N/A   Overcast
2:56 AM 33.1 °F 27.7 °F 26.1 °F 75% 30.07 in 10.0 mi WNW 5.8 mph - N/A   Overcast
3:56 AM 33.1 °F 26.9 °F 26.1 °F 75% 30.08 in 10.0 mi WNW 6.9 mph - N/A   Overcast
4:56 AM 33.1 °F 26.9 °F 26.1 °F 75% 30.08 in 10.0 mi NW 6.9 mph - N/A   Overcast
5:56 AM 33.1 °F 27.7 °F 26.1 °F 75% 30.07 in 10.0 mi NW 5.8 mph - N/A   Overcast
6:56 AM 33.1 °F 27.7 °F 24.1 °F 70% 30.08 in 10.0 mi North 5.8 mph - N/A   Overcast
7:56 AM 32.0 °F 25.6 °F 21.9 °F 66% 30.10 in 10.0 mi NW 6.9 mph - N/A   Overcast
8:56 AM 33.1 °F 28.7 °F 23.0 °F 66% 30.10 in 10.0 mi NW 4.6 mph - N/A   Overcast
9:56 AM 33.1 °F 26.1 °F 24.1 °F 70% 30.09 in 10.0 mi WNW 8.1 mph - N/A   Overcast
10:56 AM 33.1 °F 26.1 °F 25.0 °F 72% 30.10 in 10.0 mi WNW 8.1 mph - N/A   Overcast
11:56 AM 34.0 °F 28.0 °F 26.1 °F 73% 30.09 in 10.0 mi WNW 6.9 mph - N/A   Overcast
12:56 PM 34.0 °F 28.0 °F 25.0 °F 70% 30.08 in 10.0 mi WNW 6.9 mph - N/A   Overcast
1:56 PM 35.1 °F 28.6 °F 26.1 °F 70% 30.07 in 10.0 mi NW 8.1 mph - N/A   Overcast
2:56 PM 35.1 °F 28.6 °F 25.0 °F 67% 30.07 in 10.0 mi NW 8.1 mph - N/A   Overcast
3:56 PM 35.1 °F 29.3 °F 24.1 °F 64% 30.08 in 10.0 mi WNW 6.9 mph - N/A   Overcast
4:56 PM 34.0 °F 28.0 °F 25.0 °F 70% 30.08 in 10.0 mi WNW 6.9 mph - N/A   Overcast
5:56 PM 33.1 °F 25.5 °F 24.1 °F 70% 30.09 in 10.0 mi WNW 9.2 mph - N/A   Overcast
6:56 PM 33.1 °F 26.1 °F 24.1 °F 70% 30.09 in 10.0 mi NW 8.1 mph - N/A   Overcast
7:56 PM 33.1 °F 27.7 °F 23.0 °F 66% 30.09 in 10.0 mi NW 5.8 mph - N/A   Overcast
8:56 PM 32.0 °F 26.4 °F 23.0 °F 69% 30.09 in 10.0 mi NNW 5.8 mph - N/A   Overcast
9:56 PM 32.0 °F 28.7 °F 24.1 °F 73% 30.09 in 10.0 mi NNW 3.5 mph - N/A   Overcast
10:56 PM 30.9 °F 23.5 °F 21.9 °F 69% 30.09 in 10.0 mi North 8.1 mph - N/A   Overcast